STARLINK-32367 (60919 NORAD) Tracking and Keplerian Element Data

This shows tracking and keplerian element data for the satellite.

Feedback or suggestion? Click here.




ElementValue
Catalog60919
NameSTARLINK-32367
Epoch Orbit782
Epoch Day286.89335537
Epoch Year2024
RAAN145.7166
Inclination53.1604
Eccentricity0.0001774
Argument of Perigee97.337
Mean Anonmoly262.7836
Mean Motion15.39645305
Decay Rate1.056E-05
L11 60919U 24154S 24286.89335537 .00001056 00000+0 36366-4 0 9995
L22 60919 53.1604 145.7166 0001774 97.3370 262.7836 15.39645305 7826



Live tracking and technical data element details for STARLINK-32367 (NORAD 60919). STARLINK-32367 can be tracked NOW for your location showing map with azimuth and elevation plus other details from your city location.







IsCatalogInMostPopularTable: catalog: 60919, numindb: 8
Update: records affected: 1



GetName: 60919 STARLINK-32367

Hit Count: updated at: Tue, 03 Dec 2024 02:00:41 GMT